Hourly Data Report for May 24, 2012

All times are specified in Local Standard Time (LST). Add 1 hour to adjust for Daylight Saving Time where and when it is observed.

GANDER INTL A
NEWFOUNDLAND

48°56'13.000" N
54°34'05.000" W
151.20 m
8401703
71803
YQX

Download Data

Hourly Data (May 2012)
Hourly Data Report for May 24, 2012
Temp Definition
°C
Dew Point Temp Definition
°C
Rel Hum Definition
%
Wind Dir Definition
10's deg

Wind Spd Definition
km/h
Visibility Definition
km
Stn Press Definition
kPa
Hmdx Definition


Wind Chill Definition


Weather Definition


TIME
00:30 3.1 2.7 97 1 20 6.4 99.85     Drizzle,Fog
01:30 3.0 2.4 96 35 18 8.1 99.94     Fog
02:30 2.9 2.3 96 0 17 8.1 100.02     Fog
03:30 2.4 1.7 95 35 14 10.0 100.09     LegendNANA
04:30 1.6 0.7 94 34 14 10.0 100.17     LegendNANA
05:30 1.5 0.8 95 33 17 10.0 100.27     Mainly Clear
06:30 3.0 1.5 90 33 21 10.0 100.36     LegendNANA
07:30 4.7 1.7 81 33 20 10.0 100.41     LegendNANA
08:30 6.2 1.4 71 1 24 10.0 100.49     Mainly Clear
09:30 7.4 0.8 63 35 26 10.0 100.54     LegendNANA
10:30 9.0 1.2 58 2 28 10.0 100.60     LegendNANA
11:30 9.4 1.8 59 35 23 10.0 100.64     Mainly Clear
12:30 9.8 1.7 57 34 26 10.0 100.70     LegendNANA
13:30 10.5 1.4 53 35 24 10.0 100.71     LegendNANA
14:30 11.3 2.1 53 34 21 10.0 100.75     Mainly Clear
15:30 11.7 1.7 50 0 13 10.0 100.74     LegendNANA
16:30 11.7 2.5 53 33 10 10.0 100.74     LegendNANA
17:30 11.6 2.4 53 33 8 10.0 100.75     Mostly Cloudy
18:30 11.8 2.8 54 8 6 10.0 100.71     LegendNANA
19:30 10.3 2.9 60 11 13 10.0 100.75     LegendNANA
20:30 6.1 1.3 71 12 18 10.0 100.80     Mainly Clear
21:30 4.2 0.9 79 14 15 10.0 100.80     LegendNANA
22:30 3.5 0.6 81 14 15 10.0 100.80     LegendNANA
23:30 3.1 0.2 81 14 14 10.0 100.76     Clear

Notes on Data Quality.

Legend

  • E = Estimated
  • M = Missing
  • NA = Not Available
Date modified: